CST,Max TemperatureF,Mean TemperatureF,Min TemperatureF,Max Dew PointF,MeanDew PointF,Min DewpointF,Max Humidity, Mean Humidity, Min Humidity, Max Sea Level PressureIn, Mean Sea Level PressureIn, Min Sea Level PressureIn, Max VisibilityMiles, Mean VisibilityMiles, Min VisibilityMiles, Max Wind SpeedMPH, Mean Wind SpeedMPH, Max Gust SpeedMPH,PrecipitationIn, CloudCover, Events, WindDirDegrees
2012-11-1,37,32,27,34,25,21,90,77,65,30.10,30.05,29.98,10,10,4,16,11,21,0.00,8,Rain,339
2012-11-2,34,30,26,25,23,21,86,75,59,30.17,30.13,30.08,10,9,7,10,5,,0.00,6,,60
2012-11-3,35,32,30,30,28,25,92,83,69,30.22,30.19,30.16,10,9,7,8,5,,0.00,8,,98
2012-11-4,39,31,23,30,27,23,98,80,60,30.22,30.20,30.16,10,10,7,9,4,,0.00,5,,111
2012-11-5,37,34,31,33,29,26,100,82,68,30.22,30.06,29.75,10,8,1,14,6,18,0.10,8,Rain-Snow,140
2012-11-6,35,34,32,34,33,32,99,94,91,29.98,29.78,29.65,10,6,2,20,11,25,0.00,8,Rain-Snow,286
2012-11-7,43,38,34,34,32,31,96,80,61,30.05,29.98,29.87,10,9,7,16,6,21,0.00,6,,201
2012-11-8,42,38,33,36,33,31,94,82,72,30.12,29.94,29.80,10,8,5,17,11,22,0.00,6,Rain,309
2012-11-9,33,31,29,31,28,26,96,85,76,30.15,30.10,29.97,10,8,3,16,10,20,0.00,8,Snow,53
2012-11-10,40,36,32,40,36,28,100,97,83,29.97,29.64,29.40,10,3,0,18,11,23,0.04,8,Rain-Snow-Thunderstorm,88
2012-11-11,40,29,17,40,21,13,100,87,77,29.75,29.65,29.40,10,7,1,21,12,25,0.00,8,Rain-Snow,249
2012-11-12,20,18,15,16,14,11,89,84,78,30.16,29.93,29.74,10,7,0,20,13,26,0.00,8,Snow,263
2012-11-13,32,22,11,27,19,9,92,83,69,30.21,30.18,30.16,10,10,7,8,4,,0.00,4,,188
2012-11-14,44,32,20,30,27,19,96,82,56,30.19,30.12,30.02,10,9,4,9,3,,0.00,2,,195
2012-11-15,36,24,13,31,18,8,91,69,41,30.45,30.27,30.00,10,8,5,17,8,21,0.00,2,,289
2012-11-16,39,25,11,19,12,7,88,58,26,30.45,30.31,30.14,10,10,7,16,6,20,0.00,0,,147
2012-11-17,46,38,30,34,30,20,84,72,58,30.14,30.09,30.06,10,8,5,13,8,,0.00,2,,150
2012-11-18,52,42,33,35,33,30,89,72,50,30.06,30.00,29.94,10,8,5,14,7,18,0.00,2,,133
2012-11-19,52,38,23,37,33,23,99,75,55,30.12,30.00,29.93,10,7,1,13,8,17,0.00,1,Thunderstorm,235
2012-11-20,48,33,18,34,25,17,100,74,35,30.14,30.03,29.90,10,6,0,12,4,,0.00,2,Fog-Snow,166
2012-11-21,54,42,29,34,31,27,93,74,45,29.90,29.77,29.53,10,7,5,9,4,,0.00,0,,142
2012-11-22,38,27,16,35,24,13,99,92,85,30.02,29.73,29.51,10,4,0,26,10,34,0.00,6,Snow,291
2012-11-23,16,12,8,13,9,4,88,82,74,30.36,30.28,30.03,10,5,1,26,18,36,0.00,8,Snow,307
2012-11-24,23,12,4,21,10,1,93,85,72,30.30,29.97,29.75,10,8,1,13,6,17,0.00,8,Snow,175
2012-11-25,23,12,0,22,12,-4,92,82,68,30.18,29.94,29.78,10,7,2,18,13,21,0.00,7,Snow,294
2012-11-26,21,6,-7,12,0,-11,85,76,67,30.34,30.25,30.13,10,10,5,9,7,,0.00,3,Snow,249
2012-11-27,23,18,14,19,15,9,87,80,67,30.21,30.10,30.04,10,9,4,15,8,20,0.00,8,Snow,272
2012-11-28,31,22,13,23,17,9,95,84,70,30.24,30.12,30.01,10,8,5,17,9,21,0.00,6,Snow,244
2012-11-29,25,17,9,23,11,7,89,81,67,30.20,30.15,30.08,10,10,7,15,9,17,0.00,6,Snow,52
2012-11-30,28,23,18,28,23,16,98,93,89,30.17,30.07,29.91,10,6,2,17,9,20,0.00,8,Snow,129